www.pogodaiklimat.ru

Погода и климат >> Архив погоды >> Сенегал >> Сент-Луис


ПОГОДА в Сент-Луисе

  • Прогноз погоды в Сент-Луисе
  • Монитор погоды в Сент-Луисе

АРХИВ ПОГОДЫ в Сент-Луисе

Время (UTC), дата Ветер
(напр.,м/с)
 
Видим.   Явления Облачность Т
(С)
Тd
(С)
f
(%)
Тe
(С)
Тes
(С)
Комфортность P
(гПа)
Po
(гПа)
Тmin
(С)
Tmax
(С)
R
(мм)
R24
(мм)
S
(см)
12 19.04 С 4 10 км 4/0
[Ci sp]
+30.6 +17.3 45 +35 +47 очень
душно
1012.3 1011.8
18 19.04 С 5 10 км 3/0
[Ac trans]
+25.0 +16.1 58 +28 +29 жарко 1009.7 1009.2 +31.5
00 20.04 С 2 10 км 4/0
[Ac cast]
+20.0 +16.4 80 +23 +23 комфорт 1012.5 1012.0
06 20.04 С 5 10 км 3/0
[Ac cast]
+18.6 +16.3 86 +19 +19 1010.4 1009.9 +19.0
12 20.04 СЗ 3 10 км ясно +27.3 +18.6 59 +32 +49 очень
душно
1011.7 1011.2
18 20.04 С 5 10 км ясно +22.9 +17.8 73 +28 +29 душно 1010.1 1009.6 +28.9
00 21.04 С 3 10 км ясно +18.7 +17.4 92 +20 +20 1012.1 1011.6
06 21.04 С 2 10 км ясно +16.6 +17.4 100 +17 +17 1010.6 1010.1 +18.0
12 21.04 С 4 10 км ясно +24.7 +18.8 70 +30 +43 очень
душно
1012.7 1012.2
18 21.04 С 7 10 км ясно +22.8 +18.0 74 +28 +29 душно 1010.1 1009.6 +25.5
00 22.04 С 2 10 км ясно +18.4 +17.8 96 +20 +20 1012.5 1012.0
06 22.04 С 5 10 км 4/0
[Ci fib]
+17.5 +17.5 100 +17 +17 1011.5 1011.0 +17.5
12 22.04 С 6 10 км 5/0
[Ci sp]
+25.3 +18.6 66 +30 +37 душно 1012.8 1012.3
18 22.04 С 5 10 км 3/0
[Ci sp]
+22.5 +17.7 74 +28 +29 душно 1009.7 1009.2 +25.6
00 23.04 С 2 10 км 3/3 300 м
[Sc]
+18.1 +18.1 100 +19 +19 1012.1 1011.6
12 23.04 С 6 10 км 8/0
[Ci sp]
+25.0 +18.8 68 +30 +36 душно 1012.3 1011.8
18 23.04 С 5 10 км 4/0
[Ci sp]
+23.6 +17.9 70 +28 +29 душно 1009.8 1009.3 +26.5
00 24.04 С 3 10 км ясно +18.5 +18.2 98 +20 +20 1011.9 1011.4
06 24.04 С 3 10 км ясно +17.3 +17.0 98 +17 +17 1010.4 1009.9 +18.1
12 24.04 СВ 3 10 км ясно +32.4 +12.9 31 +33 +50 жарко 1012.3 1011.8
18 24.04 С 3 10 км ясно +27.3 +17.4 55 +31 +33 душно 1011.0 1009.6 +36.0
00 25.04 С 3 10 км ясно +21.1 +16.2 74 +24 +24 комфорт 1012.7 1012.2
06 25.04 С 3 10 км ясно +20.0 +16.4 80 +23 +23 комфорт 1012.2 1011.7 +19.4
12 25.04 СВ 4 10 км ясно +34.2 +11.8 26 +34 +48 очень
жарко
1012.6 1012.1
18 25.04 С 4 10 км 3/0
[Ci sp]
+27.7 +15.4 47 +31 +32 душно 1009.5 1009.0 +35.8
00 26.04 С 5 10 км 5/0
[Ci sp]
+22.0 +16.3 70 +26 +26 душно 1012.3 1011.8

 

Местоположение метеостанции Сент-Луис (Сенегал): широта 16.05 долгота -16.45 высота над уровнем моря 4 м.

В архиве по умолчанию представлена погода в Сент-Луисе за последнюю неделю. Архивные данные за месяц целиком и за предыдущие месяцы, начиная с января 2011 года, Вы можете получить, выбрав интересующий диапазон дат из раскрывающегося списка и нажав кнопку "Ввод!".


*Определитесь, кто Вы:
робот инопланетянин человек

Внимание! Время в таблицах - всемирное. Для получения местного времени необходимо прибавить поправку, которая равна 0 ч.

Смотрите также архив погоды в соседних городах и на ближайших метеорологических станциях:

Погода в Росо (Мавритания) (85 км)
Погода в Диурбеле (Сенегал) (157 км)
Погода в Лингере (Сенегал) (162 км)
Погода в Подоре (Сенегал) (172 км)
Погода в Дакаре (Сенегал) (185 км)
Погода в Каолаке (Сенегал) (218 км)
Погода в Нуакшоте (Мавритания) (234 км)
Погода в Бутилимите (Мавритания) (250 км)
Погода в Сапу (Гамбия) (281 км)
Погода в Кауере (Гамбия) (287 км)

Пояснения к столбцам:

Ветер - указаны скорость ветра в м/с - средняя за 10 мин, порывы в срок и между сроками (в фигурных скобках) и направление, откуда дует ветер: С - северный, СВ - северо-восточный, В - восточный, ЮВ - юго-восточный, Ю - южный, ЮЗ - юго-западный, З - западный, СЗ - северо-западный.
Видимость - горизонтальная дальность видимости в метрах или километрах. При видимости от 1 до 10 км при отсутствии осадков обычно наблюдается дымка, при ухудшении видимости до 1 км и менее - туман. В сухую погоду видимость может ухудшаться дымом, пылью или мглою.
Явления - указаны атмосферные явления, наблюдавшиеся в срок или в последний час перед сроком; фигурными скобками обозначены явления, наблюдавшиеся между сроками (за 1-3 часа до срока); квадратными скобками обозначены град или гололедные отложения с указанием их диаметра в мм.
Облачность - указаны через наклонную черту общая и нижняя облачность в баллах и высота нижней границы облаков в метрах; квадратными скобками обозначены формы облаков: Ci - перистые, Cs - перисто-слоистые, Cc - перисто-кучевые, Ac - высококучевые, As - высокослоистые, Sc - слоисто-кучевые, Ns - слоисто-дождевые, Cu - кучевые, Cb - кучево-дождевые. Подробнее классификацию облаков см. в Атласе облаков (PDF).
T - Температура воздуха - температура, измеренная на высоте 2 м над землей.
Td - Температура точки росы - температура, при понижении до которой содержащийся в воздухе водяной пар достигнет насыщения.
f - Относительная влажность воздуха - влажноcть воздуха, измеренная на высоте 2 м над землей.
Te - Эффективная температура - температура, которую ощущает одетый по сезону человек в тени. Характеристика душности погоды. При расчете учитывается влияние влажности воздуха и скорости ветра на теплоощущения человека.
Tes - Эффективная температура на солнце - температура, которую ощущает человек, с поправкой на солнечный нагрев. Характеристика знойности погоды. Зависит от высоты солнца над горизонтом, облачности и скорости ветра. Ночью, в пасмурную погоду, а также при ветре 12 м/с и более поправка равна нулю.
P - Атмосферное давление - приведенное к уровню моря атмосферное давление.
Po - Атмосферное давление - измеренное на уровне метеостанции атмосферное давление.
Tmin - Минимальная температура - минимум температуры воздуха на высоте 2 м над землей.
Tmax - Максимальная температура - максимум температуры воздуха на высоте 2 м над землей.
R - Количество осадков - Количество выпавших осадков за период времени, мм. При наведении курсора мыши на число - период времени, за который выпало указанное количество осадков.
R24 - Количество осадков - Количество выпавших осадков за 24 часа, мм.
S - Снежный покров - Высота снежного покрова, см. При наведении курсора мыши на число - состояние снежного покрова и степень покрытия местности в баллах.